Powrót do katalogu

NILESAT 102

AktywnyŁącznośćGEO
NORAD 26470·PAYLOAD·🇪🇬 Egypt

Wystrzelony Aug 17, 2000 z Guiana Space Centre

Loading…

TLE

ŚwieżeSource: Space-Track

Epoka: Sep 14, 2026, 06:51 UTC

1 26470U 00046B   26257.28565102 -.00000182  00000-0  00000-0 0  9992
2 26470   9.5765  58.4925 0006183 110.8384 265.2083  0.98044720 45424

Śledź NILESAT 102 w czasie rzeczywistym z AllMySat

Download on the App Store